Regional Weather Roundup
Issued by NWS Glasgow, MT

Home | Current Version | Previous Version | Text Only | Print | Product List | Glossary On
Versions: 1 2 3 4 5 6 7 8 9 10 11 12 13 14 15 16 17 18 19 20 21 22 23 24 25 26 27 28 29 30 31 32 33 34 35 36 37 38 39 40 41 42 43 44 45 46 47 48 49 50
000
ASUS45 KGGW 300115
RWRGGW
HOURLY WEATHER ROUNDUP FOR NORTHEAST MONTANA
NATIONAL WEATHER SERVICE GLASGOW MONTANA
700 PM MDT TUE JUL 29 2014

NOTE: "FAIR" INDICATES FEW OR NO CLOUDS BELOW 12,000 FEET WITH NO
SIGNIFICANT WEATHER AND/OR OBSTRUCTIONS TO VISISBILITY.

NORTHEAST MONTANA


CITY           SKY/WX    TMP DP  RH WIND       PRES   REMARKS
GLASGOW        SUNNY     87  44  22 E12       30.13F
PLENTYWOOD       N/A     78  56  46 NE7         N/A
WOLF POINT     SUNNY     87  47  24 NE13      30.14S
JORDAN           N/A     88  39  17 NE15      30.14S
WINNETT          N/A     88  37  16 E8          N/A
SIDNEY         SUNNY     81  52  36 NE12      30.16S
GLENDIVE       SUNNY     82  43  24 N16       30.16S
MALTA            N/A     90  54  29 E6          N/A
SCOBEY           N/A     78  51  38 N7        30.17S

FORT PECK REPORTS


CITY           SKY/WX    TMP DP  RH WIND       PRES   REMARKS
FORT PECK        N/A     88  46  23 NE12G20     N/A
THE PINES        N/A     85  47  26 NE10        N/A

SOUTHEAST MONTANA


CITY           SKY/WX    TMP DP  RH WIND       PRES   REMARKS
BILLINGS       MOSUNNY   86  46  24 E13       30.15F
MILES CITY     SUNNY     87  42  20 NE13      30.13F
BAKER          SUNNY     83  40  21 N14       30.16F
LIVINGSTON     MOSUNNY   85  44  23 E14       30.16F

CENTRAL MONTANA


CITY           SKY/WX    TMP DP  RH WIND       PRES   REMARKS
HAVRE          SUNNY     92  42  17 NE18      30.09S
LEWISTOWN      MOSUNNY   87  38  17 E9        30.19F
GREAT FALLS    MOSUNNY   90  39  16 SE6       30.12F
CUT BANK       PTSUNNY   88  41  19 SE10      30.15F
HELENA         CLOUDY    84  44  24 SE7       30.13F
BUTTE          CLOUDY    81  39  22 E5        30.23F
BOZEMAN        PTSUNNY   77  48  35 NE9       30.16S

WESTERN MONTANA


CITY           SKY/WX    TMP DP  RH WIND       PRES   REMARKS
MISSOULA       MOSUNNY   94  26   9 N14       30.05F
KALISPELL      NOT AVBL

NORTH DAKOTA


CITY           SKY/WX    TMP DP  RH WIND       PRES   REMARKS
WILLISTON      SUNNY     81  54  39 N8        30.15S
DICKINSON      SUNNY     74  56  53 E8        30.13S
MINOT          MOSUNNY   74  61  63 CALM      30.13F
BISMARCK       MOSUNNY   76  57  51 SE7       30.13F

SOUTHERN SASKATCHEWAN


CITY           SKY/WX    TMP DP  RH WIND       PRES   REMARKS
REGINA         SUNNY     77  57  50 N5        30.17F
ESTEVAN        MOSUNNY   73  55  53 N8        30.17S
SWIFT CURRENT  SUNNY     81  54  39 SE9       30.16S



USA.gov is the U.S. government's official web portal to all federal, state and local government web resources and services.